Year,Month,Day,Hour,Minute,Value (Times are PST for temperature in C)
2013,08,23,00,00,14.60
2013,08,23,00,01,14.50
2013,08,23,00,02,14.50
2013,08,23,00,03,14.50
2013,08,23,00,04,14.40
2013,08,23,00,05,14.40
2013,08,23,00,06,14.40
2013,08,23,00,07,14.40
2013,08,23,00,08,14.40
2013,08,23,00,09,14.40
2013,08,23,00,10,14.30
2013,08,23,00,11,14.30
2013,08,23,00,12,14.30
2013,08,23,00,13,14.30
2013,08,23,00,14,14.30
2013,08,23,00,15,14.30
2013,08,23,00,16,14.30
2013,08,23,00,17,14.20
2013,08,23,00,18,14.20
2013,08,23,00,19,14.20
2013,08,23,00,20,14.20
2013,08,23,00,21,14.10
2013,08,23,00,22,14.10
2013,08,23,00,23,14.10
2013,08,23,00,24,14.00
2013,08,23,00,25,14.00
2013,08,23,00,26,14.00
2013,08,23,00,27,13.90
2013,08,23,00,28,13.90
2013,08,23,00,29,13.90
2013,08,23,00,30,13.90
2013,08,23,00,31,13.90
2013,08,23,00,32,13.80
2013,08,23,00,33,13.80
2013,08,23,00,34,13.80
2013,08,23,00,35,13.80
2013,08,23,00,36,13.80
2013,08,23,00,37,13.70
2013,08,23,00,38,13.70
2013,08,23,00,39,13.70
2013,08,23,00,40,13.70
2013,08,23,00,41,13.60
2013,08,23,00,42,13.60
2013,08,23,00,43,13.60
2013,08,23,00,44,13.60
2013,08,23,00,45,13.60
2013,08,23,00,46,13.60
2013,08,23,00,47,13.50
2013,08,23,00,48,13.50
2013,08,23,00,49,13.50
2013,08,23,00,50,13.50
2013,08,23,00,51,13.40
2013,08,23,00,52,13.40
2013,08,23,00,53,13.40
2013,08,23,00,54,13.40
2013,08,23,00,55,13.40
2013,08,23,00,56,13.40
2013,08,23,00,57,13.40
2013,08,23,00,58,13.40
2013,08,23,00,59,13.30
2013,08,23,01,00,13.30
2013,08,23,01,01,13.30
2013,08,23,01,02,13.30
2013,08,23,01,03,13.30
2013,08,23,01,04,13.30
2013,08,23,01,05,13.30
2013,08,23,01,06,13.30
2013,08,23,01,07,13.30
2013,08,23,01,08,13.30
2013,08,23,01,09,13.30
2013,08,23,01,10,13.30
2013,08,23,01,11,13.30
2013,08,23,01,12,13.20
2013,08,23,01,13,13.20
2013,08,23,01,14,13.20
2013,08,23,01,15,13.20
2013,08,23,01,16,13.20
2013,08,23,01,17,13.20
2013,08,23,01,18,13.20
2013,08,23,01,19,13.20
2013,08,23,01,20,13.20
2013,08,23,01,21,13.20
2013,08,23,01,22,13.20
2013,08,23,01,23,13.20
2013,08,23,01,24,13.10
2013,08,23,01,25,13.10
2013,08,23,01,26,13.10
2013,08,23,01,27,13.00
2013,08,23,01,28,13.00
2013,08,23,01,29,13.00
2013,08,23,01,30,13.00
2013,08,23,01,31,12.90
2013,08,23,01,32,12.90
2013,08,23,01,33,12.90
2013,08,23,01,34,12.90
2013,08,23,01,35,12.90
2013,08,23,01,36,12.90
2013,08,23,01,37,12.90
2013,08,23,01,38,12.90
2013,08,23,01,39,12.90
2013,08,23,01,40,12.80
2013,08,23,01,41,12.80
2013,08,23,01,42,12.80
2013,08,23,01,43,12.80
2013,08,23,01,44,12.80
2013,08,23,01,45,12.80
2013,08,23,01,46,12.70
2013,08,23,01,47,12.70
2013,08,23,01,48,12.70
2013,08,23,01,49,12.70
2013,08,23,01,50,12.70
2013,08,23,01,51,12.60
2013,08,23,01,52,12.60
2013,08,23,01,53,12.60
2013,08,23,01,54,12.60
2013,08,23,01,55,12.60
2013,08,23,01,56,12.60
2013,08,23,01,57,12.60
2013,08,23,01,58,12.60
2013,08,23,01,59,12.60
2013,08,23,02,00,12.60
2013,08,23,02,01,12.60
2013,08,23,02,02,12.60
2013,08,23,02,03,12.60
2013,08,23,02,04,12.60
2013,08,23,02,05,12.60
2013,08,23,02,06,12.60
2013,08,23,02,07,12.60
2013,08,23,02,08,12.60
2013,08,23,02,09,12.60
2013,08,23,02,10,12.60
2013,08,23,02,11,12.60
2013,08,23,02,12,12.60
2013,08,23,02,13,12.60
2013,08,23,02,14,12.60
2013,08,23,02,15,12.60
2013,08,23,02,16,12.60
2013,08,23,02,17,12.60
2013,08,23,02,18,12.60
2013,08,23,02,19,12.60
2013,08,23,02,20,12.60
2013,08,23,02,21,12.60
2013,08,23,02,22,12.60
2013,08,23,02,23,12.60
2013,08,23,02,24,12.60
2013,08,23,02,25,12.60
2013,08,23,02,26,12.60
2013,08,23,02,27,12.60
2013,08,23,02,28,12.50
2013,08,23,02,29,12.50
2013,08,23,02,30,12.50
2013,08,23,02,31,12.50
2013,08,23,02,32,12.50
2013,08,23,02,33,12.50
2013,08,23,02,34,12.40
2013,08,23,02,35,12.40
2013,08,23,02,36,12.40
2013,08,23,02,37,12.40
2013,08,23,02,38,12.40
2013,08,23,02,39,12.40
2013,08,23,02,40,12.40
2013,08,23,02,41,12.40
2013,08,23,02,42,12.40
2013,08,23,02,43,12.40
2013,08,23,02,44,12.40
2013,08,23,02,45,12.40
2013,08,23,02,46,12.40
2013,08,23,02,47,12.30
2013,08,23,02,48,12.30
2013,08,23,02,49,12.30
2013,08,23,02,50,12.30
2013,08,23,02,51,12.30
2013,08,23,02,52,12.30
2013,08,23,02,53,12.30
2013,08,23,02,54,12.30
2013,08,23,02,55,12.30
2013,08,23,02,56,12.20
2013,08,23,02,57,12.20
2013,08,23,02,58,12.20
2013,08,23,02,59,12.20
2013,08,23,03,00,12.20
2013,08,23,03,01,12.20
2013,08,23,03,02,12.20
2013,08,23,03,03,12.20
2013,08,23,03,04,12.20
2013,08,23,03,05,12.20
2013,08,23,03,06,12.10
2013,08,23,03,07,12.10
2013,08,23,03,08,12.10
2013,08,23,03,09,12.10
2013,08,23,03,10,12.10
2013,08,23,03,11,12.10
2013,08,23,03,12,12.10
2013,08,23,03,13,12.10
2013,08,23,03,14,12.10
2013,08,23,03,15,12.20
2013,08,23,03,16,12.20
2013,08,23,03,17,12.20
2013,08,23,03,18,12.20
2013,08,23,03,19,12.20
2013,08,23,03,20,12.20
2013,08,23,03,21,12.20
2013,08,23,03,22,12.20
2013,08,23,03,23,12.20
2013,08,23,03,24,12.20
2013,08,23,03,25,12.20
2013,08,23,03,26,12.20
2013,08,23,03,27,12.20
2013,08,23,03,28,12.20
2013,08,23,03,29,12.20
2013,08,23,03,30,12.20
2013,08,23,03,31,12.20
2013,08,23,03,32,12.20
2013,08,23,03,33,12.20
2013,08,23,03,34,12.20
2013,08,23,03,35,12.20
2013,08,23,03,36,12.20
2013,08,23,03,37,12.20
2013,08,23,03,38,12.20
2013,08,23,03,39,12.20
2013,08,23,03,40,12.20
2013,08,23,03,41,12.10
2013,08,23,03,42,12.10
2013,08,23,03,43,12.10
2013,08,23,03,44,12.10
2013,08,23,03,45,12.10
2013,08,23,03,46,12.10
2013,08,23,03,47,12.10
2013,08,23,03,48,12.10
2013,08,23,03,49,12.20
2013,08,23,03,50,12.20
2013,08,23,03,51,12.20
2013,08,23,03,52,12.10
2013,08,23,03,53,12.10
2013,08,23,03,54,12.10
2013,08,23,03,55,12.10
2013,08,23,03,56,12.10
2013,08,23,03,57,12.10
2013,08,23,03,58,12.10
2013,08,23,03,59,12.10
2013,08,23,04,00,12.10
2013,08,23,04,01,12.10
2013,08,23,04,02,12.10
2013,08,23,04,03,12.10
2013,08,23,04,04,12.10
2013,08,23,04,05,12.10
2013,08,23,04,06,12.10
2013,08,23,04,07,12.10
2013,08,23,04,08,12.10
2013,08,23,04,09,12.00
2013,08,23,04,10,12.00
2013,08,23,04,11,12.00
2013,08,23,04,12,12.00
2013,08,23,04,13,12.00
2013,08,23,04,14,12.00
2013,08,23,04,15,12.00
2013,08,23,04,16,12.00
2013,08,23,04,17,12.00
2013,08,23,04,18,12.00
2013,08,23,04,19,12.00
2013,08,23,04,20,12.00
2013,08,23,04,21,12.00
2013,08,23,04,22,12.00
2013,08,23,04,23,12.00
2013,08,23,04,24,12.00
2013,08,23,04,25,11.90
2013,08,23,04,26,11.90
2013,08,23,04,27,11.90
2013,08,23,04,28,11.90
2013,08,23,04,29,11.90
2013,08,23,04,30,11.90
2013,08,23,04,31,11.90
2013,08,23,04,32,11.90
2013,08,23,04,33,11.90
2013,08,23,04,34,11.90
2013,08,23,04,35,11.90
2013,08,23,04,36,11.90
2013,08,23,04,37,11.90
2013,08,23,04,38,11.90
2013,08,23,04,39,11.80
2013,08,23,04,40,11.80
2013,08,23,04,41,11.80
2013,08,23,04,42,11.80
2013,08,23,04,43,11.80
2013,08,23,04,44,11.80
2013,08,23,04,45,11.80
2013,08,23,04,46,11.80
2013,08,23,04,47,11.80
2013,08,23,04,48,11.80
2013,08,23,04,49,11.80
2013,08,23,04,50,11.80
2013,08,23,04,51,11.80
2013,08,23,04,52,11.80
2013,08,23,04,53,11.80
2013,08,23,04,54,11.80
2013,08,23,04,55,11.80
2013,08,23,04,56,11.80
2013,08,23,04,57,11.80
2013,08,23,04,58,11.80
2013,08,23,04,59,11.80
2013,08,23,05,00,11.80
2013,08,23,05,01,11.80
2013,08,23,05,02,11.70
2013,08,23,05,03,11.70
2013,08,23,05,04,11.70
2013,08,23,05,05,11.70
2013,08,23,05,06,11.70
2013,08,23,05,07,11.70
2013,08,23,05,08,11.70
2013,08,23,05,09,11.70
2013,08,23,05,10,11.60
2013,08,23,05,11,11.60
2013,08,23,05,12,11.60
2013,08,23,05,13,11.60
2013,08,23,05,14,11.60
2013,08,23,05,15,11.60
2013,08,23,05,16,11.60
2013,08,23,05,17,11.60
2013,08,23,05,18,11.60
2013,08,23,05,19,11.60
2013,08,23,05,20,11.60
2013,08,23,05,21,11.60
2013,08,23,05,22,11.60
2013,08,23,05,23,11.60
2013,08,23,05,24,11.60
2013,08,23,05,25,11.60
2013,08,23,05,26,11.60
2013,08,23,05,27,11.60
2013,08,23,05,28,11.60
2013,08,23,05,29,11.60
2013,08,23,05,30,11.60
2013,08,23,05,31,11.60
2013,08,23,05,32,11.60
2013,08,23,05,33,11.60
2013,08,23,05,34,11.60
2013,08,23,05,35,11.60
2013,08,23,05,36,11.60
2013,08,23,05,37,11.60
2013,08,23,05,38,11.60
2013,08,23,05,39,11.60
2013,08,23,05,40,11.50
2013,08,23,05,41,11.50
2013,08,23,05,42,11.50
2013,08,23,05,43,11.50
2013,08,23,05,44,11.50
2013,08,23,05,45,11.50
2013,08,23,05,46,11.50
2013,08,23,05,47,11.50
2013,08,23,05,48,11.50
2013,08,23,05,49,11.50
2013,08,23,05,50,11.50
2013,08,23,05,51,11.50
2013,08,23,05,52,11.50
2013,08,23,05,53,11.50
2013,08,23,05,54,11.50
2013,08,23,05,55,11.50
2013,08,23,05,56,11.50
2013,08,23,05,57,11.50
2013,08,23,05,58,11.50
2013,08,23,05,59,11.50
2013,08,23,06,00,11.50
2013,08,23,06,01,11.50
2013,08,23,06,02,11.50
2013,08,23,06,03,11.50
2013,08,23,06,04,11.50
2013,08,23,06,05,11.50
2013,08,23,06,06,11.50
2013,08,23,06,07,11.50
2013,08,23,06,08,11.50
2013,08,23,06,09,11.50
2013,08,23,06,10,11.50
2013,08,23,06,11,11.50
2013,08,23,06,12,11.50
2013,08,23,06,13,11.50
2013,08,23,06,14,11.40
2013,08,23,06,15,11.40
2013,08,23,06,16,11.50
2013,08,23,06,17,11.50
2013,08,23,06,18,11.50
2013,08,23,06,19,11.50
2013,08,23,06,20,11.50
2013,08,23,06,21,11.50
2013,08,23,06,22,11.50
2013,08,23,06,23,11.50
2013,08,23,06,24,11.50
2013,08,23,06,25,11.50
2013,08,23,06,26,11.50
2013,08,23,06,27,11.50
2013,08,23,06,28,11.50
2013,08,23,06,29,11.50
2013,08,23,06,30,11.50
2013,08,23,06,31,11.50
2013,08,23,06,32,11.50
2013,08,23,06,33,11.50
2013,08,23,06,34,11.50
2013,08,23,06,35,11.50
2013,08,23,06,36,11.50
2013,08,23,06,37,11.50
2013,08,23,06,38,11.40
2013,08,23,06,39,11.40
2013,08,23,06,40,11.40
2013,08,23,06,41,11.40
2013,08,23,06,42,11.40
2013,08,23,06,43,11.40
2013,08,23,06,44,11.40
2013,08,23,06,45,11.40
2013,08,23,06,46,11.40
2013,08,23,06,47,11.40
2013,08,23,06,48,11.40
2013,08,23,06,49,11.50
2013,08,23,06,50,11.50
2013,08,23,06,51,11.50
2013,08,23,06,52,11.50
2013,08,23,06,53,11.60
2013,08,23,06,54,11.60
2013,08,23,06,55,11.60
2013,08,23,06,56,11.60
2013,08,23,06,57,11.60
2013,08,23,06,58,11.70
2013,08,23,06,59,11.70
2013,08,23,07,00,11.70
2013,08,23,07,01,11.70
2013,08,23,07,02,11.70
2013,08,23,07,03,11.70
2013,08,23,07,04,11.80
2013,08,23,07,05,11.80
2013,08,23,07,06,11.80
2013,08,23,07,07,11.90
2013,08,23,07,08,11.90
2013,08,23,07,09,11.90
2013,08,23,07,10,12.00
2013,08,23,07,11,12.00
2013,08,23,07,12,12.10
2013,08,23,07,13,12.10
2013,08,23,07,14,12.20
2013,08,23,07,15,12.20
2013,08,23,07,16,12.20
2013,08,23,07,17,12.30
2013,08,23,07,18,12.30
2013,08,23,07,19,12.30
2013,08,23,07,20,12.30
2013,08,23,07,21,12.30
2013,08,23,07,22,12.40
2013,08,23,07,23,12.40
2013,08,23,07,24,12.40
2013,08,23,07,25,12.50
2013,08,23,07,26,12.50
2013,08,23,07,27,12.50
2013,08,23,07,28,12.60
2013,08,23,07,29,12.60
2013,08,23,07,30,12.60
2013,08,23,07,31,12.60
2013,08,23,07,32,12.70
2013,08,23,07,33,12.70
2013,08,23,07,34,12.70
2013,08,23,07,35,12.70
2013,08,23,07,36,12.80
2013,08,23,07,37,12.80
2013,08,23,07,38,12.80
2013,08,23,07,39,12.90
2013,08,23,07,40,12.90
2013,08,23,07,41,12.90
2013,08,23,07,42,13.00
2013,08,23,07,43,13.00
2013,08,23,07,44,13.10
2013,08,23,07,45,13.10
2013,08,23,07,46,13.10
2013,08,23,07,47,13.20
2013,08,23,07,48,13.20
2013,08,23,07,49,13.20
2013,08,23,07,50,13.30
2013,08,23,07,51,13.30
2013,08,23,07,52,13.30
2013,08,23,07,53,13.30
2013,08,23,07,54,13.40
2013,08,23,07,55,13.40
2013,08,23,07,56,13.40
2013,08,23,07,57,13.40
2013,08,23,07,58,13.50
2013,08,23,07,59,13.50
2013,08,23,08,00,13.50
2013,08,23,08,01,13.50
2013,08,23,08,02,13.60
2013,08,23,08,03,13.60
2013,08,23,08,04,13.60
2013,08,23,08,05,13.60
2013,08,23,08,06,13.60
2013,08,23,08,07,13.60
2013,08,23,08,08,13.70
2013,08,23,08,09,13.70
2013,08,23,08,10,13.70
2013,08,23,08,11,13.80
2013,08,23,08,12,13.80
2013,08,23,08,13,13.80
2013,08,23,08,14,13.90
2013,08,23,08,15,13.90
2013,08,23,08,16,14.00
2013,08,23,08,17,14.00
2013,08,23,08,18,14.10
2013,08,23,08,19,14.10
2013,08,23,08,20,14.20
2013,08,23,08,21,14.20
2013,08,23,08,22,14.20
2013,08,23,08,23,14.20
2013,08,23,08,24,14.20
2013,08,23,08,25,14.30
2013,08,23,08,26,14.30
2013,08,23,08,27,14.30
2013,08,23,08,28,14.30
2013,08,23,08,29,14.30
2013,08,23,08,30,14.30
2013,08,23,08,31,14.40
2013,08,23,08,32,14.40
2013,08,23,08,33,14.40
2013,08,23,08,34,14.40
2013,08,23,08,35,14.40
2013,08,23,08,36,14.40
2013,08,23,08,37,14.40
2013,08,23,08,38,14.40
2013,08,23,08,39,14.50
2013,08,23,08,40,14.50
2013,08,23,08,41,14.50
2013,08,23,08,42,14.50
2013,08,23,08,43,14.50
2013,08,23,08,44,14.50
2013,08,23,08,45,14.50
2013,08,23,08,46,14.50
2013,08,23,08,47,14.50
2013,08,23,08,48,14.50
2013,08,23,08,49,14.50
2013,08,23,08,50,14.50
2013,08,23,08,51,14.50
2013,08,23,08,52,14.50
2013,08,23,08,53,14.50
2013,08,23,08,54,14.50
2013,08,23,08,55,14.50
2013,08,23,08,56,14.50
2013,08,23,08,57,14.50
2013,08,23,08,58,14.50
2013,08,23,08,59,14.50
2013,08,23,09,00,14.50
2013,08,23,09,01,14.50
2013,08,23,09,02,14.50
2013,08,23,09,03,14.50
2013,08,23,09,04,14.60
2013,08,23,09,05,14.60
2013,08,23,09,06,14.60
2013,08,23,09,07,14.60
2013,08,23,09,08,14.60
2013,08,23,09,09,14.60
2013,08,23,09,10,14.60
2013,08,23,09,11,14.60
2013,08,23,09,12,14.60
2013,08,23,09,13,14.60
2013,08,23,09,14,14.60
2013,08,23,09,15,14.60
2013,08,23,09,16,14.60
2013,08,23,09,17,14.60
2013,08,23,09,18,14.60
2013,08,23,09,19,14.60
2013,08,23,09,20,14.60
2013,08,23,09,21,14.70
2013,08,23,09,22,14.70
2013,08,23,09,23,14.70
2013,08,23,09,24,14.80
2013,08,23,09,25,14.80
2013,08,23,09,26,14.90
2013,08,23,09,27,14.90
2013,08,23,09,28,14.90
2013,08,23,09,29,15.00
2013,08,23,09,30,15.00
2013,08,23,09,31,15.10
2013,08,23,09,32,15.10
2013,08,23,09,33,15.20
2013,08,23,09,34,15.20
2013,08,23,09,35,15.20
2013,08,23,09,36,15.20
2013,08,23,09,37,15.20
2013,08,23,09,38,15.20
2013,08,23,09,39,15.20
2013,08,23,09,40,15.20
2013,08,23,09,41,15.10
2013,08,23,09,42,15.10
2013,08,23,09,43,15.10
2013,08,23,09,44,15.10
2013,08,23,09,45,15.10
2013,08,23,09,46,15.10
2013,08,23,09,47,15.10
2013,08,23,09,48,15.10
2013,08,23,09,49,15.10
2013,08,23,09,50,15.20
2013,08,23,09,51,15.20
2013,08,23,09,52,15.30
2013,08,23,09,53,15.30
2013,08,23,09,54,15.30
2013,08,23,09,55,15.30
2013,08,23,09,56,15.30
2013,08,23,09,57,15.20
2013,08,23,09,58,15.20
2013,08,23,09,59,15.10
2013,08,23,10,00,15.00
2013,08,23,10,01,15.00
2013,08,23,10,02,14.90
2013,08,23,10,03,14.80
2013,08,23,10,04,14.80
2013,08,23,10,05,14.80
2013,08,23,10,06,14.80
2013,08,23,10,07,14.80
2013,08,23,10,08,14.80
2013,08,23,10,09,14.80
2013,08,23,10,10,14.80
2013,08,23,10,11,14.80
2013,08,23,10,12,14.70
2013,08,23,10,13,14.80
2013,08,23,10,14,14.80
2013,08,23,10,15,14.80
2013,08,23,10,16,14.90
2013,08,23,10,17,15.00
2013,08,23,10,18,15.10
2013,08,23,10,19,15.20
2013,08,23,10,20,15.30
2013,08,23,10,21,15.40
2013,08,23,10,22,15.50
2013,08,23,10,23,15.60
2013,08,23,10,24,15.70
2013,08,23,10,25,15.80
2013,08,23,10,26,15.90
2013,08,23,10,27,16.00
2013,08,23,10,28,16.10
2013,08,23,10,29,16.20
2013,08,23,10,30,16.30
2013,08,23,10,31,16.40
2013,08,23,10,32,16.50
2013,08,23,10,33,16.70
2013,08,23,10,34,16.70
2013,08,23,10,35,16.80
2013,08,23,10,36,16.90
2013,08,23,10,37,16.90
2013,08,23,10,38,16.90
2013,08,23,10,39,16.90
2013,08,23,10,40,16.80
2013,08,23,10,41,16.70
2013,08,23,10,42,16.60
2013,08,23,10,43,16.60
2013,08,23,10,44,16.60
2013,08,23,10,45,16.70
2013,08,23,10,46,16.70
2013,08,23,10,47,16.70
2013,08,23,10,48,16.70
2013,08,23,10,49,16.70
2013,08,23,10,50,16.70
2013,08,23,10,51,16.70
2013,08,23,10,52,16.70
2013,08,23,10,53,16.60
2013,08,23,10,54,16.60
2013,08,23,10,55,16.60
2013,08,23,10,56,16.70
2013,08,23,10,57,16.60
2013,08,23,10,58,16.60
2013,08,23,10,59,16.50
2013,08,23,11,00,16.50
2013,08,23,11,01,16.40
2013,08,23,11,02,16.40
2013,08,23,11,03,16.30
2013,08,23,11,04,16.30
2013,08,23,11,05,16.30
2013,08,23,11,06,16.40
2013,08,23,11,07,16.40
2013,08,23,11,08,16.40
2013,08,23,11,09,16.50
2013,08,23,11,10,16.50
2013,08,23,11,11,16.50
2013,08,23,11,12,16.40
2013,08,23,11,13,16.40
2013,08,23,11,14,16.40
2013,08,23,11,15,16.40
2013,08,23,11,16,16.50
2013,08,23,11,17,16.50
2013,08,23,11,18,16.50
2013,08,23,11,19,16.50
2013,08,23,11,20,16.50
2013,08,23,11,21,16.40
2013,08,23,11,22,16.50
2013,08,23,11,23,16.50
2013,08,23,11,24,16.60
2013,08,23,11,25,16.60
2013,08,23,11,26,16.60
2013,08,23,11,27,16.60
2013,08,23,11,28,16.70
2013,08,23,11,29,16.70
2013,08,23,11,30,16.70
2013,08,23,11,31,16.70
2013,08,23,11,32,16.70
2013,08,23,11,33,16.70
2013,08,23,11,34,16.60
2013,08,23,11,35,16.60
2013,08,23,11,36,16.60
2013,08,23,11,37,16.60
2013,08,23,11,38,16.60
2013,08,23,11,39,16.60
2013,08,23,11,40,16.60
2013,08,23,11,41,16.60
2013,08,23,11,42,16.60
2013,08,23,11,43,16.60
2013,08,23,11,44,16.50
2013,08,23,11,45,16.50
2013,08,23,11,46,16.50
2013,08,23,11,47,16.50
2013,08,23,11,48,16.60
2013,08,23,11,49,16.70
2013,08,23,11,50,16.80
2013,08,23,11,51,16.90
2013,08,23,11,52,17.00
2013,08,23,11,53,17.10
2013,08,23,11,54,17.10
2013,08,23,11,55,17.10
2013,08,23,11,56,17.10
2013,08,23,11,57,17.10
2013,08,23,11,58,17.00
2013,08,23,11,59,16.80
2013,08,23,12,00,16.70
2013,08,23,12,01,16.60
2013,08,23,12,02,16.50
2013,08,23,12,03,16.50
2013,08,23,12,04,16.40
2013,08,23,12,05,16.30
2013,08,23,12,06,16.30
2013,08,23,12,07,16.30
2013,08,23,12,08,16.30
2013,08,23,12,09,16.30
2013,08,23,12,10,16.50
2013,08,23,12,11,16.60
2013,08,23,12,12,16.70
2013,08,23,12,13,16.80
2013,08,23,12,14,16.90
2013,08,23,12,15,16.90
2013,08,23,12,16,17.00
2013,08,23,12,17,17.00
2013,08,23,12,18,17.00
2013,08,23,12,19,17.00
2013,08,23,12,20,17.10
2013,08,23,12,21,17.20
2013,08,23,12,22,17.20
2013,08,23,12,23,17.30
2013,08,23,12,24,17.40
2013,08,23,12,25,17.40
2013,08,23,12,26,17.40
2013,08,23,12,27,17.50
2013,08,23,12,28,17.50
2013,08,23,12,29,17.50
2013,08,23,12,30,17.60
2013,08,23,12,31,17.60
2013,08,23,12,32,17.70
2013,08,23,12,33,17.80
2013,08,23,12,34,17.90
2013,08,23,12,35,18.00
2013,08,23,12,36,18.10
2013,08,23,12,37,18.20
2013,08,23,12,38,18.30
2013,08,23,12,39,18.30
2013,08,23,12,40,18.40
2013,08,23,12,41,18.40
2013,08,23,12,42,18.40
2013,08,23,12,43,18.50
2013,08,23,12,44,18.60
2013,08,23,12,45,18.60
2013,08,23,12,46,18.70
2013,08,23,12,47,18.70
2013,08,23,12,48,18.80
2013,08,23,12,49,18.80
2013,08,23,12,50,18.90
2013,08,23,12,51,18.90
2013,08,23,12,52,18.90
2013,08,23,12,53,18.90
2013,08,23,12,54,18.90
2013,08,23,12,55,18.80
2013,08,23,12,56,18.70
2013,08,23,12,57,18.50
2013,08,23,12,58,18.40
2013,08,23,12,59,18.20
2013,08,23,13,00,18.00
2013,08,23,13,01,17.80
2013,08,23,13,02,17.60
2013,08,23,13,03,17.50
2013,08,23,13,04,17.40
2013,08,23,13,05,17.30
2013,08,23,13,06,17.20
2013,08,23,13,07,17.20
2013,08,23,13,08,17.10
2013,08,23,13,09,17.10
2013,08,23,13,10,17.00
2013,08,23,13,11,16.90
2013,08,23,13,12,16.90
2013,08,23,13,13,16.80
2013,08,23,13,14,16.80
2013,08,23,13,15,16.70
2013,08,23,13,16,16.60
2013,08,23,13,17,16.50
2013,08,23,13,18,16.50
2013,08,23,13,19,16.40
2013,08,23,13,20,16.40
2013,08,23,13,21,16.30
2013,08,23,13,22,16.30
2013,08,23,13,23,16.30
2013,08,23,13,24,16.20
2013,08,23,13,25,16.20
2013,08,23,13,26,16.10
2013,08,23,13,27,16.10
2013,08,23,13,28,16.10
2013,08,23,13,29,16.10
2013,08,23,13,30,16.10
2013,08,23,13,31,16.20
2013,08,23,13,32,16.20
2013,08,23,13,33,16.30
2013,08,23,13,34,16.40
2013,08,23,13,35,16.50
2013,08,23,13,36,16.50
2013,08,23,13,37,16.60
2013,08,23,13,38,16.70
2013,08,23,13,39,16.70
2013,08,23,13,40,16.70
2013,08,23,13,41,16.70
2013,08,23,13,42,16.70
2013,08,23,13,43,16.70
2013,08,23,13,44,16.70
2013,08,23,13,45,16.70
2013,08,23,13,46,16.70
2013,08,23,13,47,16.70
2013,08,23,13,48,16.70
2013,08,23,13,49,16.70
2013,08,23,13,50,16.70
2013,08,23,13,51,16.80
2013,08,23,13,52,16.80
2013,08,23,13,53,16.90
2013,08,23,13,54,16.90
2013,08,23,13,55,16.90
2013,08,23,13,56,16.90
2013,08,23,13,57,16.90
2013,08,23,13,58,16.90
2013,08,23,13,59,16.80
2013,08,23,14,00,16.80
2013,08,23,14,01,16.80
2013,08,23,14,02,16.70
2013,08,23,14,03,16.60
2013,08,23,14,04,16.50
2013,08,23,14,05,16.40
2013,08,23,14,06,16.40
2013,08,23,14,07,16.40
2013,08,23,14,08,16.40
2013,08,23,14,09,16.40
2013,08,23,14,10,16.40
2013,08,23,14,11,16.30
2013,08,23,14,12,16.30
2013,08,23,14,13,16.30
2013,08,23,14,14,16.30
2013,08,23,14,15,16.40
2013,08,23,14,16,16.40
2013,08,23,14,17,16.40
2013,08,23,14,18,16.40
2013,08,23,14,19,16.30
2013,08,23,14,20,16.30
2013,08,23,14,21,16.30
2013,08,23,14,22,16.30
2013,08,23,14,23,16.30
2013,08,23,14,24,16.30
2013,08,23,14,25,16.30
2013,08,23,14,26,16.30
2013,08,23,14,27,16.40
2013,08,23,14,28,16.40
2013,08,23,14,29,16.50
2013,08,23,14,30,16.60
2013,08,23,14,31,16.60
2013,08,23,14,32,16.70
2013,08,23,14,33,16.70
2013,08,23,14,34,16.70
2013,08,23,14,35,16.60
2013,08,23,14,36,16.60
2013,08,23,14,37,16.50
2013,08,23,14,38,16.50
2013,08,23,14,39,16.40
2013,08,23,14,40,16.40
2013,08,23,14,41,16.40
2013,08,23,14,42,16.40
2013,08,23,14,43,16.40
2013,08,23,14,44,16.40
2013,08,23,14,45,16.40
2013,08,23,14,46,16.40
2013,08,23,14,47,16.40
2013,08,23,14,48,16.40
2013,08,23,14,49,16.40
2013,08,23,14,50,16.40
2013,08,23,14,51,16.40
2013,08,23,14,52,16.50
2013,08,23,14,53,16.50
2013,08,23,14,54,16.50
2013,08,23,14,55,16.50
2013,08,23,14,56,16.50
2013,08,23,14,57,16.50
2013,08,23,14,58,16.60
2013,08,23,14,59,16.60
2013,08,23,15,00,16.60
2013,08,23,15,01,16.70
2013,08,23,15,02,16.70
2013,08,23,15,03,16.80
2013,08,23,15,04,16.80
2013,08,23,15,05,16.80
2013,08,23,15,06,16.90
2013,08,23,15,07,17.00
2013,08,23,15,08,17.00
2013,08,23,15,09,17.10
2013,08,23,15,10,17.10
2013,08,23,15,11,17.10
2013,08,23,15,12,17.10
2013,08,23,15,13,17.10
2013,08,23,15,14,17.10
2013,08,23,15,15,17.10
2013,08,23,15,16,17.20
2013,08,23,15,17,17.20
2013,08,23,15,18,17.20
2013,08,23,15,19,17.30
2013,08,23,15,20,17.30
2013,08,23,15,21,17.30
2013,08,23,15,22,17.30
2013,08,23,15,23,17.30
2013,08,23,15,24,17.30
2013,08,23,15,25,17.30
2013,08,23,15,26,17.30
2013,08,23,15,27,17.30
2013,08,23,15,28,17.30
2013,08,23,15,29,17.30
2013,08,23,15,30,17.30
2013,08,23,15,31,17.30
2013,08,23,15,32,17.40
2013,08,23,15,33,17.40
2013,08,23,15,34,17.40
2013,08,23,15,35,17.40
2013,08,23,15,36,17.40
2013,08,23,15,37,17.40
2013,08,23,15,38,17.40
2013,08,23,15,39,17.40
2013,08,23,15,40,17.40
2013,08,23,15,41,17.40
2013,08,23,15,42,17.30
2013,08,23,15,43,17.30
2013,08,23,15,44,17.30
2013,08,23,15,45,17.30
2013,08,23,15,46,17.30
2013,08,23,15,47,17.30
2013,08,23,15,48,17.30
2013,08,23,15,49,17.30
2013,08,23,15,50,17.30
2013,08,23,15,51,17.30
2013,08,23,15,52,17.40
2013,08,23,15,53,17.40
2013,08,23,15,54,17.50
2013,08,23,15,55,17.50
2013,08,23,15,56,17.60
2013,08,23,15,57,17.60
2013,08,23,15,58,17.70
2013,08,23,15,59,17.70
2013,08,23,16,00,17.70
2013,08,23,16,01,17.70
2013,08,23,16,02,17.70
2013,08,23,16,03,17.70
2013,08,23,16,04,17.70
2013,08,23,16,05,17.60
2013,08,23,16,06,17.60
2013,08,23,16,07,17.60
2013,08,23,16,08,17.50
2013,08,23,16,09,17.40
2013,08,23,16,10,17.40
2013,08,23,16,11,17.30
2013,08,23,16,12,17.30
2013,08,23,16,13,17.30
2013,08,23,16,14,17.30
2013,08,23,16,15,17.30
2013,08,23,16,16,17.30
2013,08,23,16,17,17.40
2013,08,23,16,18,17.40
2013,08,23,16,19,17.40
2013,08,23,16,20,17.40
2013,08,23,16,21,17.40
2013,08,23,16,22,17.50
2013,08,23,16,23,17.50
2013,08,23,16,24,17.50
2013,08,23,16,25,17.50
2013,08,23,16,26,17.50
2013,08,23,16,27,17.50
2013,08,23,16,28,17.50
2013,08,23,16,29,17.50
2013,08,23,16,30,17.50
2013,08,23,16,31,17.50
2013,08,23,16,32,17.50
2013,08,23,16,33,17.60
2013,08,23,16,34,17.60
2013,08,23,16,35,17.60
2013,08,23,16,36,17.60
2013,08,23,16,37,17.60
2013,08,23,16,38,17.70
2013,08,23,16,39,17.70
2013,08,23,16,40,17.70
2013,08,23,16,41,17.70
2013,08,23,16,42,17.70
2013,08,23,16,43,17.70
2013,08,23,16,44,17.60
2013,08,23,16,45,17.60
2013,08,23,16,46,17.50
2013,08,23,16,47,17.40
2013,08,23,16,48,17.40
2013,08,23,16,49,17.30
2013,08,23,16,50,17.20
2013,08,23,16,51,17.20
2013,08,23,16,52,17.20
2013,08,23,16,53,17.20
2013,08,23,16,54,17.10
2013,08,23,16,55,17.00
2013,08,23,16,56,17.00
2013,08,23,16,57,17.00
2013,08,23,16,58,16.90
2013,08,23,16,59,16.80
2013,08,23,17,00,16.80
2013,08,23,17,01,16.70
2013,08,23,17,02,16.70
2013,08,23,17,03,16.70
2013,08,23,17,04,16.70
2013,08,23,17,05,16.70
2013,08,23,17,06,16.60
2013,08,23,17,07,16.60
2013,08,23,17,08,16.70
2013,08,23,17,09,16.70
2013,08,23,17,10,16.70
2013,08,23,17,11,16.70
2013,08,23,17,12,16.70
2013,08,23,17,13,16.70
2013,08,23,17,14,16.70
2013,08,23,17,15,16.70
2013,08,23,17,16,16.70
2013,08,23,17,17,16.60
2013,08,23,17,18,16.60
2013,08,23,17,19,16.60